Data start date =,10/1/1949
Data end date/time =,6/1/2022 13:00
""
""
Date/Time,Homme_Dam
,Flow-In
UTC,cfs
,Inst
10/1/1949 14:00,0
10/2/1949 14:00,0
10/3/1949 14:00,0
10/4/1949 14:00,0
10/5/1949 14:00,0
10/6/1949 14:00,0
10/7/1949 14:00,0
10/8/1949 14:00,0
10/9/1949 14:00,0
10/10/1949 14:00,0
10/11/1949 14:00,1
10/12/1949 14:00,0
10/13/1949 14:00,0
10/14/1949 14:00,0
10/15/1949 14:00,0
10/16/1949 14:00,0
10/17/1949 14:00,0
10/18/1949 14:00,0
10/19/1949 14:00,0
10/20/1949 14:00,0
10/21/1949 14:00,0
10/22/1949 14:00,0
10/23/1949 14:00,0
10/24/1949 14:00,0
10/25/1949 14:00,0
10/26/1949 14:00,0
10/27/1949 14:00,0
10/28/1949 14:00,0
10/29/1949 14:00,0
10/30/1949 14:00,0
10/31/1949 14:00,0
11/1/1949 14:00,0
11/2/1949 14:00,0
11/3/1949 14:00,0
11/4/1949 14:00,0
11/5/1949 14:00,0
11/6/1949 14:00,0
11/7/1949 14:00,0
11/8/1949 14:00,0
11/9/1949 14:00,0
11/10/1949 14:00,0
11/11/1949 14:00,0
11/12/1949 14:00,0
11/13/1949 14:00,0
11/14/1949 14:00,0
11/15/1949 14:00,0
11/16/1949 14:00,0
11/17/1949 14:00,0
11/18/1949 14:00,0
11/19/1949 14:00,0
11/20/1949 14:00,0
11/21/1949 14:00,0
11/22/1949 14:00,0
11/23/1949 14:00,0
11/24/1949 14:00,0
11/25/1949 14:00,0
11/26/1949 14:00,0
11/27/1949 14:00,0
11/28/1949 14:00,0
11/29/1949 14:00,0
11/30/1949 14:00,0
12/1/1949 14:00,0
12/2/1949 14:00,0
12/3/1949 14:00,0
12/4/1949 14:00,0
12/5/1949 14:00,0
12/6/1949 14:00,0
12/7/1949 14:00,0
12/8/1949 14:00,0
12/9/1949 14:00,0
12/10/1949 14:00,0
12/11/1949 14:00,0
12/12/1949 14:00,0
12/13/1949 14:00,0
12/14/1949 14:00,0
12/15/1949 14:00,0
12/16/1949 14:00,0
12/17/1949 14:00,0
12/18/1949 14:00,0
12/19/1949 14:00,0
12/20/1949 14:00,0
12/21/1949 14:00,0
12/22/1949 14:00,0
12/23/1949 14:00,0
12/24/1949 14:00,0
12/25/1949 14:00,0
12/26/1949 14:00,0
12/27/1949 14:00,0
12/28/1949 14:00,0
12/29/1949 14:00,0
12/30/1949 14:00,0
12/31/1949 14:00,0
1/1/1950 14:00,0
1/2/1950 14:00,0
1/3/1950 14:00,0
1/4/1950 14:00,0
1/5/1950 14:00,0
1/6/1950 14:00,0
1/7/1950 14:00,0
1/8/1950 14:00,0
1/9/1950 14:00,0
1/10/1950 14:00,0
1/11/1950 14:00,0
1/12/1950 14:00,0
1/13/1950 14:00,0
1/14/1950 14:00,0
1/15/1950 14:00,0
1/16/1950 14:00,0
1/17/1950 14:00,0
1/18/1950 14:00,0
1/19/1950 14:00,0
1/20/1950 14:00,0
1/21/1950 14:00,0
1/22/1950 14:00,0
1/23/1950 14:00,0
1/24/1950 14:00,0
1/25/1950 14:00,0
1/26/1950 14:00,0
1/27/1950 14:00,0
1/28/1950 14:00,0
1/29/1950 14:00,0
1/30/1950 14:00,0
1/31/1950 14:00,0
2/1/1950 14:00,0
2/2/1950 14:00,0
2/3/1950 14:00,0
2/4/1950 14:00,0
2/5/1950 14:00,0
2/6/1950 14:00,0
2/7/1950 14:00,0
2/8/1950 14:00,0
2/9/1950 14:00,0
2/10/1950 14:00,0
2/11/1950 14:00,0
2/12/1950 14:00,0
2/13/1950 14:00,0
2/14/1950 14:00,0
2/15/1950 14:00,0
2/16/1950 14:00,0
2/17/1950 14:00,0
2/18/1950 14:00,0
2/19/1950 14:00,0
2/20/1950 14:00,0
2/21/1950 14:00,0
2/22/1950 14:00,0
2/23/1950 14:00,0
2/24/1950 14:00,0
2/25/1950 14:00,0
2/26/1950 14:00,0
2/27/1950 14:00,0
2/28/1950 14:00,0
3/1/1950 14:00,0
3/2/1950 14:00,0
3/3/1950 14:00,0
3/4/1950 14:00,0
3/5/1950 14:00,0
3/6/1950 14:00,0
3/7/1950 14:00,0
3/8/1950 14:00,0
3/9/1950 14:00,0
3/10/1950 14:00,0
3/11/1950 14:00,0
3/12/1950 14:00,0
3/13/1950 14:00,0
3/14/1950 14:00,0
3/15/1950 14:00,0
3/16/1950 14:00,0
3/17/1950 14:00,1
3/18/1950 14:00,0
3/19/1950 14:00,1
3/20/1950 14:00,1
3/21/1950 14:00,1
3/22/1950 14:00,2
3/23/1950 14:00,2
3/24/1950 14:00,3
3/25/1950 14:00,5
3/26/1950 14:00,7
3/27/1950 14:00,7
3/28/1950 14:00,5
3/29/1950 14:00,4
3/30/1950 14:00,5
3/31/1950 14:00,6
4/1/1950 14:00,5
4/2/1950 14:00,4
4/3/1950 14:00,4
4/4/1950 14:00,3
4/5/1950 14:00,4
4/6/1950 14:00,4
4/7/1950 14:00,4
4/8/1950 14:00,5
4/9/1950 14:00,6
4/10/1950 14:00,7
4/11/1950 14:00,7
4/12/1950 14:00,9
4/13/1950 14:00,10
4/14/1950 14:00,11
4/15/1950 14:00,11
4/16/1950 14:00,31
4/17/1950 14:00,699
4/18/1950 14:00,2960
4/19/1950 14:00,3900
4/20/1950 14:00,2850
4/21/1950 14:00,2530
4/22/1950 14:00,2870
4/23/1950 14:00,2510
4/24/1950 14:00,1740
4/25/1950 14:00,802
4/26/1950 14:00,342
4/27/1950 14:00,205
4/28/1950 14:00,200
4/29/1950 14:00,257
4/30/1950 13:00,314
5/1/1950 13:00,408
5/2/1950 13:00,480
5/3/1950 13:00,386
5/4/1950 13:00,254
5/5/1950 13:00,292
5/6/1950 13:00,668
5/7/1950 13:00,1730
5/8/1950 13:00,3220
5/9/1950 13:00,3170
5/10/1950 13:00,2430
5/11/1950 13:00,2270
5/12/1950 13:00,1620
5/13/1950 13:00,1010
5/14/1950 13:00,777
5/15/1950 13:00,585
5/16/1950 13:00,378
5/17/1950 13:00,273
5/18/1950 13:00,230
5/19/1950 13:00,252
5/20/1950 13:00,297
5/21/1950 13:00,257
5/22/1950 13:00,193
5/23/1950 13:00,163
5/24/1950 13:00,139
5/25/1950 13:00,116
5/26/1950 13:00,99
5/27/1950 13:00,85
5/28/1950 13:00,73
5/29/1950 13:00,60
5/30/1950 13:00,53
5/31/1950 13:00,48
6/1/1950 13:00,44
6/2/1950 13:00,39
6/3/1950 13:00,34
6/4/1950 13:00,31
6/5/1950 13:00,30
6/6/1950 13:00,28
6/7/1950 13:00,25
6/8/1950 13:00,24
6/9/1950 13:00,23
6/10/1950 13:00,22
6/11/1950 13:00,22
6/12/1950 13:00,20
6/13/1950 13:00,19
6/14/1950 13:00,18
6/15/1950 13:00,17
6/16/1950 13:00,17
6/17/1950 13:00,17
6/18/1950 13:00,15
6/19/1950 13:00,14
6/20/1950 13:00,13
6/21/1950 13:00,12
6/22/1950 13:00,11
6/23/1950 13:00,11
6/24/1950 13:00,10
6/25/1950 13:00,13
6/26/1950 13:00,25
6/27/1950 13:00,28
6/28/1950 13:00,22
6/29/1950 13:00,19
6/30/1950 13:00,17
7/1/1950 13:00,14
7/2/1950 13:00,13
7/3/1950 13:00,11
7/4/1950 13:00,10
7/5/1950 13:00,9
7/6/1950 13:00,9
7/7/1950 13:00,8
7/8/1950 13:00,9
7/9/1950 13:00,9
7/10/1950 13:00,8
7/11/1950 13:00,9
7/12/1950 13:00,8
7/13/1950 13:00,8
7/14/1950 13:00,8
7/15/1950 13:00,8
7/16/1950 13:00,7
7/17/1950 13:00,7
7/18/1950 13:00,6
7/19/1950 13:00,5
7/20/1950 13:00,5
7/21/1950 13:00,5
7/22/1950 13:00,5
7/23/1950 13:00,5
7/24/1950 13:00,4
7/25/1950 13:00,4
7/26/1950 13:00,4
7/27/1950 13:00,3
7/28/1950 13:00,1
7/29/1950 13:00,0
7/30/1950 13:00,1
7/31/1950 13:00,0
8/1/1950 13:00,22
8/2/1950 13:00,26
8/3/1950 13:00,19
8/4/1950 13:00,2
8/5/1950 13:00,2
8/6/1950 13:00,2
8/7/1950 13:00,2
8/8/1950 13:00,1
8/9/1950 13:00,1
8/10/1950 13:00,0
8/11/1950 13:00,0
8/12/1950 13:00,0
8/13/1950 13:00,0
8/14/1950 13:00,0
8/15/1950 13:00,0
8/16/1950 13:00,0
8/17/1950 13:00,0
8/18/1950 13:00,0
8/19/1950 13:00,0
8/20/1950 13:00,0
8/21/1950 13:00,0
8/22/1950 13:00,0
8/23/1950 13:00,0
8/24/1950 13:00,0
8/25/1950 13:00,0
8/26/1950 13:00,1
8/27/1950 13:00,1
8/28/1950 13:00,1
8/29/1950 13:00,1
8/30/1950 13:00,1
8/31/1950 13:00,0
9/1/1950 13:00,0
9/2/1950 13:00,0
9/3/1950 13:00,0
9/4/1950 13:00,0
9/5/1950 13:00,0
9/6/1950 13:00,0
9/7/1950 13:00,0
9/8/1950 13:00,0
9/9/1950 13:00,0
9/10/1950 13:00,1
9/11/1950 13:00,2
9/12/1950 13:00,0
9/13/1950 13:00,0
9/14/1950 13:00,0
9/15/1950 13:00,0
9/16/1950 13:00,0
9/17/1950 13:00,0
9/18/1950 13:00,0
9/19/1950 13:00,2
9/20/1950 13:00,0
9/21/1950 13:00,1
9/22/1950 13:00,2
9/23/1950 13:00,3
9/24/1950 14:00,1
9/25/1950 14:00,1
9/26/1950 14:00,1
9/27/1950 14:00,1
9/28/1950 14:00,0
9/29/1950 14:00,0
9/30/1950 14:00,0
10/1/1950 14:00,1
10/2/1950 14:00,2
10/3/1950 14:00,1
10/4/1950 14:00,2
10/5/1950 14:00,2
10/6/1950 14:00,2
10/7/1950 14:00,1
10/8/1950 14:00,1
10/9/1950 14:00,1
10/10/1950 14:00,1
10/11/1950 14:00,1
10/12/1950 14:00,1
10/13/1950 14:00,1
10/14/1950 14:00,1
10/15/1950 14:00,1
10/16/1950 14:00,1
10/17/1950 14:00,0
10/18/1950 14:00,1
10/19/1950 14:00,1
10/20/1950 14:00,1
10/21/1950 14:00,1
10/22/1950 14:00,1
10/23/1950 14:00,1
10/25/1950 14:00,1
10/26/1950 14:00,1
10/27/1950 14:00,1
10/28/1950 14:00,0
10/29/1950 14:00,0
10/30/1950 14:00,0
10/31/1950 14:00,1
11/1/1950 14:00,1
11/2/1950 14:00,4
11/3/1950 14:00,4
11/4/1950 14:00,6
11/5/1950 14:00,2
11/6/1950 14:00,0
11/7/1950 14:00,2
11/8/1950 14:00,3
11/9/1950 14:00,8
11/10/1950 14:00,10
11/11/1950 14:00,3
11/12/1950 14:00,2
11/13/1950 14:00,3
11/14/1950 14:00,2
11/15/1950 14:00,2
11/16/1950 14:00,1
11/17/1950 14:00,1
11/18/1950 14:00,2
11/19/1950 14:00,2
11/20/1950 14:00,2
11/21/1950 14:00,2
11/22/1950 14:00,2
11/23/1950 14:00,2
11/24/1950 14:00,2
11/25/1950 14:00,1
11/26/1950 14:00,2
11/27/1950 14:00,2
11/28/1950 14:00,2
11/29/1950 14:00,2
11/30/1950 14:00,2
12/1/1950 14:00,2
12/2/1950 14:00,1
12/3/1950 14:00,2
12/4/1950 14:00,2
12/5/1950 14:00,2
12/6/1950 14:00,2
12/7/1950 14:00,2
12/8/1950 14:00,2
12/9/1950 14:00,1
12/10/1950 14:00,2
12/11/1950 14:00,1
12/12/1950 14:00,1
12/13/1950 14:00,1
12/14/1950 14:00,1
12/15/1950 14:00,1
12/16/1950 14:00,1
12/17/1950 14:00,1
12/18/1950 14:00,1
12/19/1950 14:00,1
12/20/1950 14:00,1
12/21/1950 14:00,1
12/22/1950 14:00,1
12/23/1950 14:00,1
12/24/1950 14:00,1
12/25/1950 14:00,1
12/26/1950 14:00,1
12/27/1950 14:00,1
12/28/1950 14:00,1
12/29/1950 14:00,1
12/30/1950 14:00,1
12/31/1950 14:00,1
1/1/1951 14:00,1
1/2/1951 14:00,1
1/3/1951 14:00,1
1/4/1951 14:00,1
1/5/1951 14:00,1
1/6/1951 14:00,1
1/7/1951 14:00,1
1/8/1951 14:00,1
1/9/1951 14:00,1
1/10/1951 14:00,1
1/11/1951 14:00,1
1/12/1951 14:00,1
1/13/1951 14:00,1
1/14/1951 14:00,1
1/15/1951 14:00,1
1/16/1951 14:00,1
1/17/1951 14:00,1
1/18/1951 14:00,1
1/19/1951 14:00,1
1/20/1951 14:00,1
1/21/1951 14:00,1
1/22/1951 14:00,1
1/23/1951 14:00,1
1/24/1951 14:00,1
1/25/1951 14:00,1
1/26/1951 14:00,1
1/27/1951 14:00,1
1/28/1951 14:00,1
1/29/1951 14:00,1
1/30/1951 14:00,1
1/31/1951 14:00,1
2/1/1951 14:00,1
2/2/1951 14:00,1
2/3/1951 14:00,1
2/4/1951 14:00,1
2/5/1951 14:00,1
2/6/1951 14:00,1
2/7/1951 14:00,1
2/8/1951 14:00,1
2/9/1951 14:00,1
2/10/1951 14:00,1
2/11/1951 14:00,1
2/12/1951 14:00,1
2/13/1951 14:00,1
2/14/1951 14:00,1
2/15/1951 14:00,1
2/16/1951 14:00,1
2/17/1951 14:00,1
2/18/1951 14:00,1
2/19/1951 14:00,1
2/20/1951 14:00,1
2/21/1951 14:00,1
2/22/1951 14:00,1
2/23/1951 14:00,1
2/24/1951 14:00,1
2/25/1951 14:00,1
2/26/1951 14:00,1
2/27/1951 14:00,1
2/28/1951 14:00,1
3/1/1951 14:00,1
3/2/1951 14:00,1
3/3/1951 14:00,1
3/4/1951 14:00,1
3/5/1951 14:00,1
3/6/1951 14:00,1
3/7/1951 14:00,1
3/8/1951 14:00,1
3/9/1951 14:00,1
3/10/1951 14:00,1
3/11/1951 14:00,1
3/12/1951 14:00,1
3/13/1951 14:00,1
3/14/1951 14:00,1
3/15/1951 14:00,1
3/16/1951 14:00,1
3/17/1951 14:00,1
3/18/1951 14:00,1
3/19/1951 14:00,1
3/20/1951 14:00,1
3/21/1951 14:00,1
3/22/1951 14:00,1
3/23/1951 14:00,1
3/24/1951 14:00,1
3/25/1951 14:00,1
3/26/1951 14:00,1
3/27/1951 14:00,25
3/28/1951 14:00,141
3/29/1951 14:00,185
3/30/1951 14:00,129
3/31/1951 14:00,98
4/1/1951 14:00,97
4/2/1951 14:00,104
4/3/1951 14:00,220
4/4/1951 14:00,525
4/5/1951 14:00,613
4/6/1951 14:00,627
4/7/1951 14:00,368
4/8/1951 14:00,243
4/9/1951 14:00,146
4/10/1951 14:00,140
4/11/1951 14:00,71
4/12/1951 14:00,75
4/13/1951 14:00,58
4/14/1951 14:00,45
4/15/1951 14:00,46
4/16/1951 14:00,26
4/17/1951 14:00,38
4/18/1951 14:00,29
4/19/1951 14:00,32
4/20/1951 14:00,31
4/21/1951 14:00,33
4/22/1951 14:00,29
4/23/1951 14:00,25
4/24/1951 14:00,29
4/25/1951 14:00,29
4/26/1951 14:00,32
4/27/1951 14:00,32
4/28/1951 14:00,43
4/29/1951 13:00,40
4/30/1951 13:00,35
5/1/1951 13:00,33
5/2/1951 13:00,29
5/3/1951 13:00,24
5/4/1951 13:00,19
5/5/1951 13:00,16
5/6/1951 13:00,9
5/7/1951 13:00,18
5/8/1951 13:00,13
5/9/1951 13:00,11
5/10/1951 13:00,10
5/11/1951 13:00,9
5/12/1951 13:00,7
5/13/1951 13:00,6
5/14/1951 13:00,6
5/15/1951 13:00,7
5/16/1951 13:00,4
5/17/1951 13:00,6
5/18/1951 13:00,6
5/19/1951 13:00,8
5/20/1951 13:00,3
5/21/1951 13:00,4
5/22/1951 13:00,6
5/23/1951 13:00,2
5/24/1951 13:00,6
5/26/1951 13:00,5
5/28/1951 13:00,2
5/29/1951 13:00,4
5/31/1951 13:00,1
6/1/1951 13:00,1
6/2/1951 13:00,1
6/3/1951 13:00,16
6/4/1951 13:00,5
6/5/1951 13:00,4
6/6/1951 13:00,5
6/7/1951 13:00,10
6/8/1951 13:00,6
6/9/1951 13:00,1
6/10/1951 13:00,3
6/11/1951 13:00,5
6/12/1951 13:00,3
6/13/1951 13:00,3
6/14/1951 13:00,2
6/15/1951 13:00,3
6/16/1951 13:00,1
6/17/1951 13:00,1
6/18/1951 13:00,0
6/19/1951 13:00,4
6/20/1951 13:00,1
6/21/1951 13:00,1
6/22/1951 13:00,1
6/23/1951 13:00,1
6/24/1951 13:00,1
6/25/1951 13:00,1
6/26/1951 13:00,3
6/27/1951 13:00,1
6/30/1951 13:00,0
7/1/1951 13:00,1
7/2/1951 13:00,1
7/3/1951 13:00,0
7/4/1951 13:00,0
7/5/1951 13:00,0
7/6/1951 13:00,0
7/7/1951 13:00,1
7/8/1951 13:00,0
7/9/1951 13:00,0
7/10/1951 13:00,5
7/13/1951 13:00,0
7/14/1951 13:00,0
7/16/1951 13:00,0
7/17/1951 13:00,0
7/18/1951 13:00,0
7/20/1951 13:00,0
7/21/1951 13:00,0
7/23/1951 13:00,0
7/24/1951 13:00,0
7/25/1951 13:00,0
7/26/1951 13:00,1
7/27/1951 13:00,0
7/28/1951 13:00,0
7/29/1951 13:00,0
7/30/1951 13:00,7
7/31/1951 13:00,1
8/1/1951 13:00,0
8/2/1951 13:00,0
8/5/1951 13:00,6
8/6/1951 13:00,4
8/7/1951 13:00,2
8/8/1951 13:00,0
8/10/1951 13:00,4
8/12/1951 13:00,0
8/13/1951 13:00,1
8/14/1951 13:00,1
8/15/1951 13:00,1
8/16/1951 13:00,4
8/17/1951 13:00,2
8/18/1951 13:00,1
8/19/1951 13:00,0
8/20/1951 13:00,3
8/21/1951 13:00,0
8/22/1951 13:00,1
8/23/1951 13:00,0
8/25/1951 13:00,11
8/26/1951 13:00,1
8/27/1951 13:00,0
8/28/1951 13:00,1
8/30/1951 13:00,2
8/31/1951 13:00,12
9/1/1951 13:00,3
9/2/1951 13:00,1
9/3/1951 13:00,1
9/4/1951 13:00,1
9/5/1951 13:00,4
9/6/1951 13:00,0
9/7/1951 13:00,2
9/8/1951 13:00,2
9/9/1951 13:00,1
9/10/1951 13:00,1
9/11/1951 13:00,1
9/12/1951 13:00,17
9/13/1951 13:00,11
9/15/1951 13:00,1
9/16/1951 13:00,2
9/17/1951 13:00,1
9/18/1951 13:00,0
9/19/1951 13:00,2
9/20/1951 13:00,0
9/21/1951 13:00,0
9/22/1951 13:00,33
9/23/1951 13:00,80
9/26/1951 13:00,31
9/27/1951 13:00,19
9/28/1951 13:00,17
9/29/1951 13:00,8
9/30/1951 14:00,13
10/1/1951 14:00,21
10/2/1951 14:00,11
10/3/1951 14:00,12
10/4/1951 14:00,4
10/6/1951 14:00,18
10/7/1951 14:00,20
10/8/1951 14:00,7
10/9/1951 14:00,4
10/10/1951 14:00,2
10/11/1951 14:00,2
10/12/1951 14:00,3
10/13/1951 14:00,3
10/14/1951 14:00,6
10/15/1951 14:00,5
10/16/1951 14:00,3
10/17/1951 14:00,5
10/18/1951 14:00,5
10/19/1951 14:00,2
10/20/1951 14:00,3
10/21/1951 14:00,2
10/22/1951 14:00,1
10/23/1951 14:00,2
10/24/1951 14:00,2
10/25/1951 14:00,3
10/26/1951 14:00,3
10/27/1951 14:00,3
10/28/1951 14:00,3
10/29/1951 14:00,3
10/30/1951 14:00,3
10/31/1951 14:00,2
11/1/1951 14:00,3
11/2/1951 14:00,3
11/3/1951 14:00,3
11/4/1951 14:00,3
11/5/1951 14:00,3
11/6/1951 14:00,3
11/7/1951 14:00,3
11/8/1951 14:00,3
11/9/1951 14:00,2
11/10/1951 14:00,1
11/11/1951 14:00,1
11/12/1951 14:00,2
11/13/1951 14:00,0
11/14/1951 14:00,2
11/15/1951 14:00,1
11/16/1951 14:00,1
11/17/1951 14:00,1
11/18/1951 14:00,1
11/19/1951 14:00,1
11/20/1951 14:00,1
11/21/1951 14:00,1
11/22/1951 14:00,1
11/23/1951 14:00,1
11/24/1951 14:00,1
11/25/1951 14:00,1
11/26/1951 14:00,1
11/27/1951 14:00,1
11/28/1951 14:00,1
11/29/1951 14:00,1
11/30/1951 14:00,1
12/1/1951 14:00,1
12/2/1951 14:00,2
12/3/1951 14:00,2
12/4/1951 14:00,2
12/5/1951 14:00,3
12/6/1951 14:00,3
12/7/1951 14:00,2
12/8/1951 14:00,2
12/9/1951 14:00,2
12/10/1951 14:00,2
12/11/1951 14:00,2
12/12/1951 14:00,2
12/13/1951 14:00,2
12/14/1951 14:00,2
12/15/1951 14:00,2
12/16/1951 14:00,2
12/17/1951 14:00,2
12/18/1951 14:00,2
12/19/1951 14:00,2
12/20/1951 14:00,2
12/21/1951 14:00,2
12/22/1951 14:00,2
12/23/1951 14:00,2
12/24/1951 14:00,2
12/25/1951 14:00,2
12/26/1951 14:00,2
12/27/1951 14:00,2
12/28/1951 14:00,2
12/29/1951 14:00,2
12/30/1951 14:00,2
12/31/1951 14:00,2
1/1/1952 14:00,2
1/2/1952 14:00,2
1/3/1952 14:00,1
1/4/1952 14:00,1
1/5/1952 14:00,1
1/6/1952 14:00,1
1/7/1952 14:00,1
1/8/1952 14:00,1
1/9/1952 14:00,1
1/10/1952 14:00,1
1/11/1952 14:00,2
1/12/1952 14:00,2
1/13/1952 14:00,2
1/14/1952 14:00,2
1/15/1952 14:00,2
1/16/1952 14:00,2
1/17/1952 14:00,2
1/18/1952 14:00,2
1/19/1952 14:00,2
1/20/1952 14:00,2
1/21/1952 14:00,2
1/22/1952 14:00,2
1/23/1952 14:00,2
1/24/1952 14:00,2
1/25/1952 14:00,2
1/26/1952 14:00,2
1/27/1952 14:00,2
1/28/1952 14:00,2
1/29/1952 14:00,2
1/30/1952 14:00,2
1/31/1952 14:00,2
2/1/1952 14:00,2
2/2/1952 14:00,2
2/3/1952 14:00,2
2/4/1952 14:00,2
2/5/1952 14:00,2
2/6/1952 14:00,2
2/7/1952 14:00,2
2/8/1952 14:00,2
2/9/1952 14:00,2
2/10/1952 14:00,2
2/11/1952 14:00,2
2/12/1952 14:00,2
2/13/1952 14:00,2
2/14/1952 14:00,2
2/15/1952 14:00,2
2/16/1952 14:00,1
2/17/1952 14:00,1
2/18/1952 14:00,1
2/19/1952 14:00,0
2/20/1952 14:00,0
2/21/1952 14:00,0
2/22/1952 14:00,0
2/23/1952 14:00,0
2/24/1952 14:00,0
2/25/1952 14:00,0
2/26/1952 14:00,0
2/27/1952 14:00,0
2/28/1952 14:00,0
2/29/1952 14:00,0
3/1/1952 14:00,0
3/2/1952 14:00,0
3/3/1952 14:00,0
3/4/1952 14:00,0
3/5/1952 14:00,0
3/6/1952 14:00,0
3/7/1952 14:00,0
3/8/1952 14:00,0
3/9/1952 14:00,0
3/10/1952 14:00,0
3/11/1952 14:00,0
3/12/1952 14:00,0
3/13/1952 14:00,0
3/14/1952 14:00,0
3/15/1952 14:00,0
3/16/1952 14:00,0
3/17/1952 14:00,0
3/18/1952 14:00,0
3/19/1952 14:00,0
3/20/1952 14:00,0
3/21/1952 14:00,0
3/22/1952 14:00,0
3/23/1952 14:00,0
3/24/1952 14:00,0
3/25/1952 14:00,0
3/26/1952 14:00,0
3/27/1952 14:00,0
3/28/1952 14:00,0
3/29/1952 14:00,0
3/30/1952 14:00,0
3/31/1952 14:00,0
4/1/1952 14:00,392
4/2/1952 14:00,222
4/3/1952 14:00,46
4/4/1952 14:00,43
4/5/1952 14:00,36
4/6/1952 14:00,25
4/7/1952 14:00,48
4/8/1952 14:00,47
4/9/1952 14:00,64
4/10/1952 14:00,9
4/11/1952 14:00,25
4/12/1952 14:00,21
4/13/1952 14:00,18
4/14/1952 14:00,13
4/15/1952 14:00,12
4/16/1952 14:00,10
4/17/1952 14:00,8
4/18/1952 14:00,9
4/19/1952 14:00,7
4/20/1952 14:00,6
4/21/1952 14:00,8
4/22/1952 14:00,4
4/23/1952 14:00,4
4/24/1952 14:00,4
4/25/1952 14:00,4
4/26/1952 14:00,4
4/27/1952 13:00,3
4/28/1952 13:00,2
4/29/1952 13:00,2
4/30/1952 13:00,8
5/1/1952 13:00,1
5/2/1952 13:00,7
5/3/1952 13:00,5
5/4/1952 13:00,6
5/5/1952 13:00,1
5/6/1952 13:00,5
5/7/1952 13:00,7
5/8/1952 13:00,3
5/9/1952 13:00,4
5/10/1952 13:00,0
5/11/1952 13:00,2
5/12/1952 13:00,1
5/13/1952 13:00,2
5/14/1952 13:00,1
5/15/1952 13:00,0
5/16/1952 13:00,1
5/17/1952 13:00,0
5/18/1952 13:00,1
5/19/1952 13:00,1
5/20/1952 13:00,1
5/21/1952 13:00,1
5/22/1952 13:00,1
5/23/1952 13:00,1
5/24/1952 13:00,1
5/25/1952 13:00,0
5/26/1952 13:00,0
5/27/1952 13:00,2
5/28/1952 13:00,0
5/29/1952 13:00,0
5/30/1952 13:00,0
5/31/1952 13:00,0
6/1/1952 13:00,0
6/2/1952 13:00,3
6/3/1952 13:00,0
6/4/1952 13:00,1
6/5/1952 13:00,3
6/6/1952 13:00,1
6/7/1952 13:00,1
6/8/1952 13:00,1
6/11/1952 13:00,0
6/12/1952 13:00,0
6/13/1952 13:00,0
6/14/1952 13:00,0
6/15/1952 13:00,0
6/16/1952 13:00,4
6/17/1952 13:00,0
6/18/1952 13:00,0
6/19/1952 13:00,0
6/20/1952 13:00,0
6/21/1952 13:00,0
6/22/1952 13:00,0
6/23/1952 13:00,1
6/24/1952 13:00,0
6/25/1952 13:00,1
6/26/1952 13:00,0
6/27/1952 13:00,0
6/28/1952 13:00,4
6/29/1952 13:00,2
6/30/1952 13:00,0
7/1/1952 13:00,7
7/2/1952 13:00,1
7/3/1952 13:00,11
7/4/1952 13:00,2
7/5/1952 13:00,0
7/6/1952 13:00,0
7/7/1952 13:00,0
7/9/1952 13:00,0
7/10/1952 13:00,2
7/13/1952 13:00,0
7/14/1952 13:00,0
7/15/1952 13:00,0
7/16/1952 13:00,2
7/17/1952 13:00,0
7/18/1952 13:00,0
7/19/1952 13:00,0
7/20/1952 13:00,5
7/21/1952 13:00,0
7/22/1952 13:00,0
7/24/1952 13:00,0
7/25/1952 13:00,1
7/26/1952 13:00,0
7/27/1952 13:00,0
7/28/1952 13:00,1
7/29/1952 13:00,3
7/30/1952 13:00,0
7/31/1952 13:00,1
8/1/1952 13:00,0
8/2/1952 13:00,0
8/3/1952 13:00,3
8/4/1952 13:00,2
8/6/1952 13:00,0
8/7/1952 13:00,0
8/8/1952 13:00,0
8/9/1952 13:00,0
8/10/1952 13:00,0
8/12/1952 13:00,0
8/13/1952 13:00,0
8/14/1952 13:00,0
8/16/1952 13:00,0
8/17/1952 13:00,0
8/18/1952 13:00,0
8/19/1952 13:00,0
8/20/1952 13:00,0
8/22/1952 13:00,0
8/24/1952 13:00,0
8/25/1952 13:00,0
8/26/1952 13:00,5
8/27/1952 13:00,0
8/28/1952 13:00,4
8/30/1952 13:00,0
8/31/1952 13:00,6
9/1/1952 13:00,0
9/2/1952 13:00,7
9/3/1952 13:00,1
9/4/1952 13:00,16
9/5/1952 13:00,23
9/6/1952 13:00,13
9/7/1952 13:00,16
9/8/1952 13:00,21
9/9/1952 13:00,20
9/10/1952 13:00,21
9/12/1952 13:00,22
9/13/1952 13:00,4
9/14/1952 13:00,4
9/15/1952 13:00,2
9/16/1952 13:00,1
9/17/1952 13:00,3
9/18/1952 13:00,1
9/19/1952 13:00,1
9/20/1952 13:00,1
9/21/1952 13:00,1
9/22/1952 13:00,1
9/23/1952 13:00,0
9/24/1952 13:00,1
9/25/1952 13:00,0
9/26/1952 13:00,0
9/27/1952 13:00,0
9/28/1952 14:00,0
9/29/1952 14:00,0
9/30/1952 14:00,0
10/1/1952 14:00,0
10/2/1952 14:00,0
10/3/1952 14:00,0
10/4/1952 14:00,0
10/5/1952 14:00,0
10/6/1952 14:00,0
10/7/1952 14:00,0
10/8/1952 14:00,0
10/9/1952 14:00,0
10/10/1952 14:00,1
10/11/1952 14:00,0
10/12/1952 14:00,2
10/13/1952 14:00,0
10/14/1952 14:00,1
10/15/1952 14:00,0
10/16/1952 14:00,0
10/17/1952 14:00,1
10/18/1952 14:00,0
10/19/1952 14:00,0
10/20/1952 14:00,1
10/21/1952 14:00,1
10/22/1952 14:00,0
10/23/1952 14:00,0
10/24/1952 14:00,0
10/25/1952 14:00,0
10/26/1952 14:00,0
10/27/1952 14:00,0
10/28/1952 14:00,0
10/29/1952 14:00,0
10/30/1952 14:00,0
10/31/1952 14:00,1
11/1/1952 14:00,0
11/2/1952 14:00,0
11/3/1952 14:00,0
11/4/1952 14:00,1
11/5/1952 14:00,1
11/6/1952 14:00,0
11/7/1952 14:00,0
11/8/1952 14:00,0
11/9/1952 14:00,0
11/10/1952 14:00,1
11/11/1952 14:00,0
11/12/1952 14:00,0
11/13/1952 14:00,1
11/14/1952 14:00,2
11/15/1952 14:00,1
11/16/1952 14:00,1
11/17/1952 14:00,0
11/18/1952 14:00,3
11/19/1952 14:00,1
11/20/1952 14:00,4
11/21/1952 14:00,3
11/22/1952 14:00,2
11/23/1952 14:00,3
11/24/1952 14:00,3
11/25/1952 14:00,3
11/26/1952 14:00,4
11/27/1952 14:00,2
11/28/1952 14:00,3
11/29/1952 14:00,3
11/30/1952 14:00,3
12/1/1952 14:00,4
12/2/1952 14:00,3
12/3/1952 14:00,2
12/4/1952 14:00,2
12/5/1952 14:00,2
12/6/1952 14:00,3
12/7/1952 14:00,2
12/8/1952 14:00,2
12/9/1952 14:00,2
12/10/1952 14:00,2
12/11/1952 14:00,2
12/12/1952 14:00,3
12/13/1952 14:00,2
12/14/1952 14:00,2
12/15/1952 14:00,2
12/16/1952 14:00,2
12/17/1952 14:00,2
12/18/1952 14:00,2
12/19/1952 14:00,1
12/20/1952 14:00,3
12/21/1952 14:00,2
12/22/1952 14:00,3
12/23/1952 14:00,4
12/24/1952 14:00,1
12/25/1952 14:00,3
12/26/1952 14:00,2
12/27/1952 14:00,4
12/28/1952 14:00,4
12/29/1952 14:00,3
12/30/1952 14:00,0
12/31/1952 14:00,4
1/1/1953 14:00,2
1/2/1953 14:00,2
1/3/1953 14:00,2
1/4/1953 14:00,2
1/5/1953 14:00,2
1/6/1953 14:00,2
1/7/1953 14:00,2
1/8/1953 14:00,2
1/10/1953 14:00,3
1/11/1953 14:00,1
1/12/1953 14:00,4
1/13/1953 14:00,3
1/14/1953 14:00,2
1/15/1953 14:00,4
1/16/1953 14:00,4
1/17/1953 14:00,4
1/18/1953 14:00,4
1/19/1953 14:00,4
1/20/1953 14:00,4
1/21/1953 14:00,4
1/22/1953 14:00,4
1/23/1953 14:00,4
1/29/1953 14:00,3
1/30/1953 14:00,2
1/31/1953 14:00,4
2/1/1953 14:00,3
2/2/1953 14:00,4
2/3/1953 14:00,3
2/5/1953 14:00,0
2/6/1953 14:00,0
2/7/1953 14:00,2
2/8/1953 14:00,1
2/9/1953 14:00,1
2/10/1953 14:00,1
2/11/1953 14:00,2
2/12/1953 14:00,2
2/13/1953 14:00,2
2/14/1953 14:00,3
2/15/1953 14:00,1
2/16/1953 14:00,1
2/17/1953 14:00,1
2/18/1953 14:00,0
2/19/1953 14:00,3
2/20/1953 14:00,2
2/21/1953 14:00,0
2/22/1953 14:00,1
2/23/1953 14:00,3
2/24/1953 14:00,0
2/25/1953 14:00,0
2/26/1953 14:00,0
2/27/1953 14:00,1
2/28/1953 14:00,1
3/1/1953 14:00,2
3/2/1953 14:00,2
3/3/1953 14:00,2
3/7/1953 14:00,3
3/8/1953 14:00,7
3/9/1953 14:00,7
3/10/1953 14:00,7
3/11/1953 14:00,7
3/12/1953 14:00,7
3/13/1953 14:00,9
3/14/1953 14:00,2
3/15/1953 14:00,2
3/16/1953 14:00,1
3/17/1953 14:00,2
3/18/1953 14:00,3
3/19/1953 14:00,1
3/20/1953 14:00,2
3/21/1953 14:00,6
3/22/1953 14:00,3
3/23/1953 14:00,2
3/24/1953 14:00,1
3/25/1953 14:00,1
3/26/1953 14:00,2
3/27/1953 14:00,3
3/28/1953 14:00,4
3/29/1953 14:00,4
3/30/1953 14:00,3
3/31/1953 14:00,4
4/1/1953 14:00,4
4/2/1953 14:00,4
4/3/1953 14:00,3
4/4/1953 14:00,2
4/5/1953 14:00,2
4/6/1953 14:00,3
4/7/1953 14:00,3
4/8/1953 14:00,2
4/9/1953 14:00,4
4/10/1953 14:00,3